OPS 4682 DEB, 38392

Orbit data source: Space-Track

OPS 4682 DEB, 38392 is space debris in LEO originally from a launch on Sat, 03 Apr 1965 UTC launched from the Air Force Western Test Range (AFWTR). Debris objects in space refer to the collection of defunct objects orbiting the Earth. Examples of debris include non-operational satellites, rocket bodies, and fragments generated from explosions, collisions, or faulty payload assembly.

Loading next visibility...
Identifier
38392, 1965-027CV
Orbit
LEO
Country
Flag of USUS
Related business
Manufacturer
Unknown
Mission
Spacecraft
Bus & Motor
Unknown
Mass
Unknown
Launch date (UTC)
1965-04-03 (61 years ago)
Launch vehicle
Unknown
Launch site
Air Force Western Test Range (AFWTR)
Object type
Payload
Rocket body
Debris
Shape & HBR
Unknown shape, 0.1 m
Radar Cross Section
Small (<0.1 m²)

Expand to show TLE details & history
Last TLE update: 2 weeks ago

TLE from 2 weeks ago
0 OPS 4682 DEB
1 38392U 65027CV  25328.83147957  .00000078  00000-0  25266-3 0  9998
2 38392  90.2452   8.7644 0029155 348.5431  11.5021 12.95223642584685
Epoch: 2025-11-24T19:57Z
TLE epoch observation values (Epoch: 2025-11-24T19:57:19.834Z)
Latitude
-0.00008°
Longitude
5.40595°
Altitude
1,261.852 km
Speed
7.235 km/s
True Right ascension
00h 35m 03s
True Declination
0° 00' 00"
Sunlit
Object was in full shadow at epoch
Visualization orbit readout
Latitude
Unknown
Longitude
Unknown
Altitude
Unknown
Speed
Unknown
Apparent Right ascension
Unknown
Apparent Declination
Unknown
Sunlit
N/A
Visualization observer readout
Local Sidereal Time
03:23:48
Azimuth
Unknown
Elevation
Unknown
Doppler factor
Unknown
Orbital elements
Apogee altitude
1,300.314 km
Perigee altitude
1,255.671 km
Semi-major axis
7,656.129 km
Eccentricity
0.00292
Inclination
90.2452°
RAAN
8.7644°
Arg. of periapsis
348.5431°
True anomaly
11.56896°
Mean anomaly
11.5021°
Eccentric anomaly
11.53551°
Mean motion
3.23988 °/min
Orbital period
111.12 mins
BSTAR
0.00025266
Loading maneuver chart data...
Computing Atmospheric mass density...
Loading historical data...
Loading historical data...
Loading historical data...
Loading historical data...
Loading historical data...
Loading historical data...
Loading historical data...

Documentation

Showing up to 5 results
|